Погода в Аяккуме

Хотите узнать прогноз погоды в Аяккуме? Тогда Вам сюда: Погода в Аяккуме

Поиск расширенной информации на нашем сайте:

Полезная информация:

Новости сайта



02.01.2020
Опубликован Долгосрочный прогноз погоды по городам России и ближнего зарубежья на январь 2020 года.
Карты: Прогноз на январь и февраль 2020 года, Сравнение прогнозируемой аномалии приземной температуры воздуха на январь 2020 года по разным моделям.




Погода в Аяккуме - сегодня

Время (UTC), дата Ветер
(°,м/с) 
Видим.   Явления Облачность Т
(°С)
Тd
(°С)
f(%) Тe
(°С)
Pmin
(гПа)
dP
(гПа)
Po
(мм)
O2
(г/м3)
Тmin Tmax R s Состояние
почвы
09 22.10.21 230 (ЮЗ) 10 км  пыльный позёмок{ливн. осадки}  10/10 1000 м 
[Sc]
+10.5 -0.6 46 +8  1024.9  -1.1  759  294           
12 22.10.21 230 (ЮЗ) 10 км  пыльный позёмок  8/8 1000 м 
[Sc]
+13.2 -0.9 38 +12  1024.6  -0.2  758  292           
15 22.10.21 230 (ЮЗ) н/о    4/4 600 м средняя 
[Ac trans]
+10.1 -0.5 48 +10  1025.7  0.9  759  295    +14.5  0.0     
18 22.10.21 200 (Ю) н/о    ясно 
+7.8 -0.5 56 +7  1026  -0.2  759  297    +14.5  0.0     
21 22.10.21 200 (Ю) н/о    ясно 
+7.6 +1.5 65 +6  1026.3  0.3  759  297           
00 23.10.21 200 (Ю) н/о    ясно 
+6.8 +0.1 62 +5  1026.7  0.3  759  299           
03 23.10.21 230 (ЮЗ) 20000 м  гроза, пыльная буря  3/0 средняя 
[Ac trans]
+6.2 -0.3 63 +5  1027.1  0.4  760  299           
06 23.10.21 230 (ЮЗ) 20000 м    5/0 средняя, верхняя 
[Ac trans|Ci]
+11.3 -3.3 36 +10  1028.3  1.4  761  295  +5.3         
09 23.10.21 230 (ЮЗ) 20000 м    3/0 верхняя 
[Ci ing]
+17.3 +0.5 32 +17  1026.4  -1.1  760  288           
12 23.10.21 180 (Ю) 20000 м    ясно 
+16.2 -1.2 30 +16  1025.9  -6  759  289           
15 23.10.21 230 (ЮЗ) н/о    ясно 
+11.2 -4.7 32 +10  1026.2  0.1  760  294    +18.5       
18 23.10.21 140 (ЮВ) н/о    ясно 
+7.3 -4.5 43 +6  1026  -0.4  759  298    +18.5       
21 23.10.21 140 (ЮВ) н/о    ясно 
+5.6 -5.2 46 +5  1025.6  -0.5  759  300           
00 24.10.21 090 (В) н/о    ясно 
+1.3 -7.1 53 +1  1025.4  -0.4  760  306           
03 24.10.21 090 (В) 20000 м    ясно 
+1.6 -0.8 84 1024.5  -0.9  758  304           
06 24.10.21 180 (Ю) 20000 м    ясно 
+11 -8.7 24 +10  1023.6  -0.4  758  294  +0.6         
09 24.10.21 180 (Ю) 20000 м    1/0 верхняя 
[Ci fib]
+16 -7.5 19 +16  1021.7  -1.6  756  289           
12 24.10.21 180 (Ю) 20000 м    ясно 
+17.2 -5 21 +17  1019.8  -1.9  755  287           
15 24.10.21 180 (Ю) н/о    ясно 
+10.8 -3 38 +11  1019.5  -0.5  755  293    +18.3       
18 24.10.21 тихо ()   н/о    ясно 
+8 -4.5 41 +8  1018.8  -0.9  754  296    +18.3       
21 24.10.21 тихо ()   н/о    8/0 верхняя 
[Cs]
+3.6 -3.4 60 +4  1018  -1.4  753  300           
00 25.10.21 тихо ()   н/о    6/0 верхняя 
[Cs]
+2.3 -3.4 66 +2  1016.6  -1  752  301           
03 25.10.21 тихо ()   20000 м    4/0 верхняя 
[Ci fib]
+0.7 -3.2 75 +1  1015.6  -1.1  751  302           
06 25.10.21 140 (ЮВ) 20000 м    6/0 верхняя 
[Ci fib]
+11 -0.5 45 +11  1015.2  0.1  751  291  +0.5         
09 25.10.21 140 (ЮВ) 20000 м    8/0 верхняя 
[Ci fib]
+17.7 -0.5 29 +19  1013.2  -1.6  750  284           
Время (UTC), дата Ветер
(°,м/с) 
Видим.   Явления Облачность Т
(°С)
Тd
(°С)
f(%) Тe
(°С)
Pmin
(гПа)
dP
(гПа)
Po
(мм)
O2
(г/м3)
Тmin Tmax R s Состояние
почвы

Для получения пояснительной информации подведите курсор к названию столбца.

ПОГОДА в Аяккуме - архив

Всё, что Вы хотите узнать о погоде в Аяккуме - удобно и подробно!

Выберите нужную дату (начиная с 1 января 2019* года) и нажмите кнопку "Найти".
Будут отображены архивные сводки погоды по пункту Аяккум, начиная с указанной даты.


Отображать данные в формате CSV (для использования в таблицах Excel)


Внимание! Наш архив погоды предназначен исключительно для личного некоммерческого использования в познавательных целях. Если Вам необходимы официальные справки о состоянии погоды (для производственных, юридических, коммерческих и т.п. целей), обращайтесь в органы Росгидромета.

*Примечание: данная дата относится к архиву по метеостанциям СССР (Россия, СНГ, Балтия).
Архив по метеостанциям Зарубежной Европы и Азии (кроме Китая) хранится 10 дней, по другим регионам земного шара (Китай, Африка, Америка, Австралия, Океания) - 1 день.

Аяккум - район местоположения метеостанции


Название, широта, долгота, высота метеостанции:
Аяккум 46.7°ш. 59.2°д. 114 м над ур. моря [Казахстан]

Дополнительная информация

В oтличие oт бoльшинства пoгoдных сайтoв мы публикуем пoдрoбную метеoинфoрмацию в детальнoм прoфессиoнальнoм фoрмате.

Характеристики температуры и влажнoсти вoздуха измеряются на высoте 2 м в тени вдали oт зданий и деревьев.
Скoрoсть ветра измеряется на высoте 10 м (на урoвне рoста челoвека скoрoсть ветра ниже в 1.5-2 раза). Если метеoстанция нахoдится в гoрoде или в лесу, тo скoрoсть ветра занижена на 2-4 м/с пo сравнению с oткрытым местoм. Скoрoсть ветра над акватoриями крупных рек и oзёр, а также на вершинах хoлмoв на 2-5 м/с выше, чем в oбычных услoвиях.
Атмoсфернoе давление в разных тoчках местнoсти мoжет значительнo oтличаться oт давления на метеoстанции, в зависимoсти oт услoвий рельефа (при пoдъёме на 10 м давление пoнижается примернo на 1 мм рт.ст.).